User: anonymous   Login
Location: Banios
(43.0451°N, 0.2335°E)
Time: 19:08:47
(UTC+00:00)
Language:

Cosmos 1891 Rocket - Orbit

View from above orbital plane
View from above orbital plane
View from above satellite
View from above satellite

Ground track
Ground track

The orbit data is extracted from the following two-line orbital elements,

1 18403U 87087B   21104.50228779 -.00000052  00000-0 -67570-4 0  9992
2 18403  82.9156 131.0849 0056398 235.1514 124.4332 13.76548899682282
Epoch (UTC): 14 April 2021 12:03:17
Eccentricity: 0.0056398
inclination: 82.9156°
perigee height: 934 km
apogee height: 1017 km
right ascension of ascending node: 131.0849°
argument of perigee: 235.1514°
revolutions per day: 13.76548899
mean anomaly at epoch: 124.4332°
orbit number at epoch: 68228

The dashed part of the orbit path shows where the satellite is in the earth's shadow,  

DLR